This is the latest recevied weather packets stored in our database for station/object N0NPO. If no packets are shown the sender has not sent any weather packets the latest 10 day(s).
| Time | Temp. | Humidity | Pressure | Rain* | Wind** | Luminosity | Snow |
|---|---|---|---|---|---|---|---|
| 1777670810 | 14.44° C | 1% | 1023.4 hPa | 0 mm | - | 646 W/m² | - |
| 1777670507 | 15° C | 1% | 1023.3 hPa | 0 mm | - | 555 W/m² | - |
| 1777670204 | 14.44° C | 1% | 1023.4 hPa | 0 mm | - | 690 W/m² | - |
| 1777669902 | 13.89° C | 1% | 1023.6 hPa | 0 mm | - | 602 W/m² | - |
| 1777669598 | 13.89° C | 1% | 1023.5 hPa | 0 mm | - | 531 W/m² | - |
| 1777669295 | 14.44° C | 1% | 1023.4 hPa | 0 mm | - | 681 W/m² | - |
| 1777668991 | 13.33° C | 1% | 1023.6 hPa | 0 mm | - | 606 W/m² | - |
| 1777668689 | 13.33° C | 1% | 1023.5 hPa | 0 mm | - | 294 W/m² | - |
| 1777668385 | 13.33° C | 1% | 1023.7 hPa | 0 mm | - | 795 W/m² | - |
| 1777668081 | 13.89° C | 1% | 1023.7 hPa | 0 mm | - | 716 W/m² | - |
| 1777667778 | 13.33° C | 1% | 1023.9 hPa | 0 mm | - | 692 W/m² | - |
| 1777667476 | 13.33° C | 1% | 1023.6 hPa | 0 mm | - | 703 W/m² | - |
| 1777667173 | 13.33° C | 1% | 1023.6 hPa | 0 mm | - | 662 W/m² | - |
| 1777666870 | 12.78° C | 1% | 1023.6 hPa | 0 mm | - | 667 W/m² | - |
| 1777666566 | 12.78° C | 1% | 1023.8 hPa | 0 mm | - | 641 W/m² | - |
| 1777666263 | 13.33° C | 1% | 1023.6 hPa | 0 mm | - | 694 W/m² | - |
| 1777665960 | 12.78° C | 1% | 1023.8 hPa | 0 mm | - | 650 W/m² | - |
| 1777665657 | 12.78° C | 1% | 1024 hPa | 0 mm | - | 697 W/m² | - |
| 1777665355 | 12.78° C | 1% | 1023.8 hPa | 0 mm | - | 681 W/m² | - |
| 1777665050 | 13.33° C | 1% | 1023.8 hPa | 0 mm | - | 681 W/m² | - |
| 1777664745 | 13.33° C | 1% | 1023.8 hPa | 0 mm | - | 729 W/m² | - |
| 1777664442 | 12.78° C | 1% | 1023.9 hPa | 0 mm | - | 362 W/m² | - |
| 1777664139 | 13.33° C | 1% | 1023.8 hPa | 0 mm | - | 703 W/m² | - |
| 1777663838 | 13.89° C | 1% | 1023.9 hPa | 0 mm | - | 711 W/m² | - |
| 1777663534 | 12.78° C | 1% | 1023.8 hPa | 0 mm | - | 686 W/m² | - |
* Rain latest hour (hover to see other rain measurements)
** Current wind speed in m/s (hover to see current wind gust speed)